Orbital Elements at Epoch 2459000.5 (2020-May-31.0) TDB
Reference: JPL 13 (heliocentric ecliptic J2000)
Element | Value | Uncertainty (1-sigma) | Units |
e | .1498100996206958 | 6.8991e-08 | |
a | 2.528434358873523 | 1.7556e-08 | au |
q | 2.14964935568629 | 1.7736e-07 | au |
i | 11.79402949661076 | 8.0626e-06 | deg |
node | 162.4574400557088 | 5.2876e-05 | deg |
peri | 171.5259301498057 | 7.1342e-05 | deg |
M | 7.051138969471933 | 5.2874e-05 | deg |
tp | 2458971.737096430303 (2020-May-02.23709643) | 0.00021572 | TDB |
period | 1468.506766058867 4.02 | 1.5294e-05 4.187e-08 | d yr |
n | .2451469808110975 | 2.5532e-09 | deg/d |
Q | 2.907219362060756 | 2.0186e-08 | au |
|
| | Orbit Determination Parameters
Additional Information
|